Tracking 30922 objects as of 2-Jul-2025
HD Live streaming from Space Station
objects crossing your sky now

IUS DEB

Track IUS DEB now!
10-day predictions


NORAD ID: 43364
Int'l Code: 1999-040M
Perigee: 839.0 km
Apogee: 9,455.5 km
Inclination: 28.1 °
Period: 205.0 minutes
Semi major axis: 11518 km
RCS: Unknown
Launch date: July 23, 1999
Source: United States (US)
Launch site: AIR FORCE EASTERN TEST RANGE (AFETR)

Note: This is SATELLITE DEBRIS
Your satellite tracking list
Your tracking list is empty




NASA's NSSDC Master Catalog

Two Line Element Set (TLE):
1 43364U 99040M   25182.19573420  .00001023  00000-0  78485-2 0  9991
2 43364  28.0688 152.2918 3740386 101.7701 301.7163  7.02299469114320
Source of the keplerian elements: AFSPC